This demonstration page uses our WeatherBlox Daily Observations layout. Learn more.

Left ArrowRight Arrow

Hourly Observations for April 16, 2016

Temp ( °F °C ) Dew Point ( °F °C ) Humidity (%) Winds ( mph kmh ) Pressure ( in mb ) Visibility ( mi km ) Precip ( " mm )
12:51 am 00:51 Clear 55 12.8 17 -8.3 22 22 W 17 28 29.63 1003 10 16 0.00 0.00
1:51 am 01:51 Clear 54 12.2 24 -4.4 31 31 WNW 21 33 29.63 1003 10 16 0.00 0.00
2:51 am 02:51 Clear 52 11.1 27 -2.8 38 38 WNW 13 20 29.65 1004 10 16 0.00 0.00
3:51 am 03:51 Clear 50 10 27 -2.8 41 41 NW 12 19 29.66 1005 10 16 0.00 0.00
4:51 am 04:51 Clear 49 9.4 28 -2.2 44 44 NW 10 17 29.70 1006 10 16 0.00 0.00
5:51 am 05:51 Mostly Cloudy 49 9.4 29 -1.7 46 46 NW 12 19 29.72 1007 10 16 0.00 0.00
6:51 am 06:51 Mostly Sunny 51 10.6 29 -1.7 43 43 NW 15 24 29.75 1008 10 16 0.00 0.00
7:51 am 07:51 Mostly Sunny 55 12.8 30 -1.1 38 38 NW 16 26 29.77 1008 10 16 0.00 0.00
8:51 am 08:51 Sunny 58 14.4 30 -1.1 35 35 WNW 15 24 29.76 1008 10 16 0.00 0.00
9:51 am 09:51 Partly Cloudy 60 15.6 28 -2.2 30 30 WNW 17 28 29.78 1009 10 16 0.00 0.00
10:51 am 10:51 Mostly Sunny 63 17.2 28 -2.2 27 27 NW 17 28 29.78 1008 10 16 0.00 0.00
11:51 am 11:51 Mostly Cloudy 65 18.3 28 -2.2 25 25 NW 14 22 29.77 1008 10 16 0.00 0.00
12:51 pm 12:51 Mostly Sunny 66 18.9 26 -3.3 22 22 NW 20 31 29.76 1008 10 16 0.00 0.00
1:51 pm 13:51 Cloudy 67 19.4 26 -3.3 21 21 NW 20 31 29.76 1008 10 16 0.00 0.00
2:51 pm 14:51 Cloudy 66 18.9 25 -3.9 21 21 WNW 20 31 29.78 1008 10 16 0.00 0.00
3:51 pm 15:51 Cloudy 66 18.9 25 -3.9 21 21 W 20 31 29.80 1009 10 16 0.00 0.00
4:51 pm 16:51 Cloudy 65 18.3 25 -3.9 22 22 WNW 17 28 29.82 1010 10 16 0.00 0.00
5:51 pm 17:51 Mostly Cloudy 65 18.3 25 -3.9 22 22 NW 16 26 29.83 1010 10 16 0.00 0.00
6:51 pm 18:51 Partly Cloudy 62 16.7 28 -2.2 28 28 NNW 7 11 29.84 1011 10 16 0.00 0.00
7:51 pm 19:51 Mostly Clear 60 15.6 28 -2.2 30 30 NNW 7 11 29.86 1011 10 16 0.00 0.00
8:51 pm 20:51 Partly Cloudy 60 15.6 29 -1.7 31 31 N 9 15 29.88 1012 10 16 0.00 0.00
9:51 pm 21:51 Mostly Cloudy 59 15 30 -1.1 33 33 WNW 8 13 29.90 1012 10 16 0.00 0.00
10:51 pm 22:51 Clear 53 11.7 31 -0.6 43 43 NW 7 11 29.90 1013 10 16 0.00 0.00
11:51 pm 23:51 Clear 55 12.8 28 -2.2 35 35 NNW 9 15 29.90 1013 10 16 0.00 0.00

Powered by AerisWeather